Regional Weather Roundup
Issued by NWS

Home | Current Version | Previous Version | Text Only | Print | Product List | Glossary On
Versions: 1 2 3 4 5 6 7 8 9 10 11 12 13 14 15 16 17 18 19 20 21 22 23 24 25 26 27 28 29 30 31 32 33 34 35 36 37 38 39 40 41 42 43 44 45 46 47 48 49 50
000
ASUS43 KOAX 061302
RWRNE

WEATHER ROUNDUP FOR NEBRASKA
NATIONAL WEATHER SERVICE OMAHA NE
800 AM CDT WED MAY 06 2015

NOTES: SATELLITE DATA IS BEING USED TO AUGMENT CLOUD COVER ABOVE
       12000 FEET.
       "FAIR" INDICATES FEW OR NO CLOUDS BELOW 12,000 FEET WITH NO
       SIGNIFICANT WEATHER AND/OR OBSTRUCTIONS TO VISIBILITY.

  * THESE STATIONS DO NOT REPORT WEATHER SUCH AS RAIN...SNOW OR FOG.

NEZ001>004-019>022-054>056-061400-
NEBRASKA PANHANDLE

CITY           SKY/WX    TMP DP  RH WIND       PRES   REMARKS
SCOTTSBLUFF    CLOUDY    53  52  96 E12       29.67F
ALLIANCE       CLOUDY    52  51  97 SE12      29.68F
CHADRON        LGT RAIN  53  52  96 NE7       29.70R FOG
SIDNEY         FOG       51  50  96 SE12      29.67S VSB 3/4
$$

NEZ057>060-069>072-079>082-061400-
SOUTHWEST NEBRASKA

CITY           SKY/WX    TMP DP  RH WIND       PRES   REMARKS
NORTH PLATTE   LGT RAIN  59  56  89 SE6       29.71F
IMPERIAL       CLOUDY    54  51  90 S12       29.69S
MCCOOK         CLOUDY    60  57  89 S12       29.71S
$$

NEZ005>010-023>029-035>040-094-061400-
NORTH CENTRAL NEBRASKA

CITY           SKY/WX    TMP DP  RH WIND       PRES   REMARKS
VALENTINE      CLOUDY    59  57  93 SE9       29.75S
BROKEN BOW     CLOUDY    60  58  92 SE13G24   29.74F
ORD            CLOUDY    60  57  89 SE8       29.76F
$$

NEZ041-046>049-061>064-073>077-083>087-061400-
SOUTH CENTRAL NEBRASKA

CITY           SKY/WX    TMP DP  RH WIND       PRES   REMARKS
GRAND ISLAND   LGT RAIN  60  58  92 SE13      29.77F FOG
HASTINGS       CLOUDY    60  58  92 S8        29.76F
KEARNEY *      CLOUDY    61  57  88 SE14      29.76S
$$

NEZ011>018-030>034-042>045-061400-
NORTHEAST NEBRASKA

CITY           SKY/WX    TMP DP  RH WIND       PRES   REMARKS
NORFOLK        LGT RAIN  62  60  93 E12       29.80F FOG
COLUMBUS *     CLOUDY    61  55  82 SE12G17   29.81F
TEKAMAH        LGT RAIN  64  60  87 SE15      29.86F
$$

NEZ050>053-065>068-078-088>093-061400-
SOUTHEAST NEBRASKA

CITY           SKY/WX    TMP DP  RH WIND       PRES   REMARKS
LINCOLN        CLOUDY    64  60  87 SE18G26   29.81F
OMAHA EPPLEY   CLOUDY    63  60  90 SE18      29.86F
FALLS CITY     CLOUDY    64  59  83 SE15G24   29.86F
$$

NEZ044-045-051>053-067-061400-
OMAHA AREA

CITY           SKY/WX    TMP DP  RH WIND       PRES   REMARKS
OMAHA EPPLEY   CLOUDY    63  60  90 SE18      29.86F
$$


USA.gov is the U.S. government's official web portal to all federal, state and local government web resources and services.